map of PEE home
Great Circle Mapper logo
PEE - Airport
Location
City:  Perm, Russian Federation (Russia)
Name:Bolshoye Savino
ICAO / IATA:USPP / PEE

Details
Type:Airport (Aerodrome, Airfield)
Use:Public/Civil, Military
Latitude:5754'52"N (57.914517)
Longitude:5601'16"E (56.021214)
Datum:WGS 1984
Elevation:404 ft (123 m)
Variation:15.1E (WMM2010 magnetic declination)
Runways:1
Longest:10520 × 161 ft (3206 × 49 m), paved

Time
Time Zone:UTC+5 (DST+6)

Weather
METAR:USPP 231000Z 06005MPS 9999 FEW033 M12/M18 Q1030 03820255 NOSIG RMK QFE762/1016
TAF:USPP 230758Z 2309/2409 04008MPS 9999 DRSN SCT020 530002
FM232000 30004MPS 6000 SCT007

Related Locations
Nearby:
Farthest:SCPZ: 10647 mi / 17134 km
Antartica (Antarctica) [Patriot Hills], MA, CL

Find:

   beyond  
but within

Other Information
Maps:
NOTAMs:
Links:
Sources:

  
flag of Russian Federation (Russia)   

Sectional Chart

Flight Planning
at skyvector.com

Satellite Image

Google Maps Satellite View

 

Copyright © 2004-2014 Karl L. Swartz. All rights reserved.
The Great Circle Mapper name and logo are trademarks of the Great Circle Mapper.
All other trademarks mentioned herein belong to their respective owners.
Please see credits for attibutions and further copyright information.

  Follow gcmap on Facebook Follow gcmap on Twitter

hCard Microformat

Geo Microformat